Location: Wanzleben
(52.0609°N, 11.4408°E)
Time: 18:36:22
(UTC+00:00)

COSMOS 2406 - Pass Details

Date: 20 January 2021
Orbit: 841 x 865 km, 71.0° (Epoch: 05 March)

Event Time Altitude Azimuth Distance (km) Brightness Sun altitude
Rises 17:23:18 0° 329° (NNW) 3,459 6.6 -15.3°
Reaches altitude 10° 17:26:04 10° 340° (NNW) 2,520 5.8 -15.7°
Maximum altitude 17:31:12 32° 42° (NE) 1,462 4.0 -16.5°
Enters shadow 17:32:57 27° 74° (ENE) 1,619 4.1 -16.8°
